Location: Esp�s Alto
(42.4476°N, 0.5876°E)
Time: 15:08:43
(UTC+00:00)

Cosmos 1707 - Pass Details

Date: 22 October 2019
Orbit: 515 x 532 km, 82.5° (Epoch: 14 November)

Event Time Altitude Azimuth Distance (km) Brightness Sun altitude
Exits shadow 04:45:18 24° 325° (NW) 1,138 4.1 -17.8°
Drops below altitude 10° 04:47:20 10° 348° (NNW) 1,790 5.3 -17.5°
Sets 04:49:40 0° 359° (N) 2,684 6.3 -17.0°
